QPF
0.00 0.00 0.00 0.00 0.00 0.00 0.00 0.00 0.00 0.00 0.00 0.00 0.00 0.00 0.00 0.00 0.00 0.00 0.00 0.00 0.00 0.00 0.00 0.00 0.00 0.00 0.00 0.00 0.00 0.00 0.00 0.00 0.00 0.00 0.00 0.00 0.00 0.00 0.00 0.00 0.00 0.00 0.00 0.00
0.00 0.00 0.00 0.00 0.00 0.00 0.00 0.00 0.00 0.00 0.00 0.00 0.00 0.00 0.00 0.00 0.00 0.00 0.00 0.00 0.00 0.00 0.00 0.00 0.00 0.00 0.00 0.00 0.00 0.00 0.00 0.00 0.00 0.00 0.00 0.00 0.00 0.00 0.00 0.00 0.00 0.00 0.00 0.00
0.00 0.00 0.00 0.00 0.00 0.00 0.00 0.00 0.00 0.00 0.00 0.00 0.00 0.00 0.00 0.00 0.00 0.00 0.00 0.00 0.00 0.00 0.00 0.00 0.00 0.00 0.00 0.00 0.00 0.00 0.00 0.00 0.00 0.00 0.00 0.00 0.00 0.00 0.00 0.00 0.00 0.00 0.00 0.00
0.00 0.00 0.00 0.00 0.00 0.00 0.00 0.00 0.00 0.00 0.00 0.00 0.00 0.00 0.00 0.00 0.00 0.00 0.00 0.00 0.00 0.00 0.00 0.00 0.00 0.00 0.00 0.00 0.00 0.00 0.00 0.00 0.00 0.00 0.00 0.00 0.00 0.00 0.00 0.00 0.00 0.00 0.00 0.00
0.00 0.00 0.00 0.00 0.00 0.00 0.00 0.00 0.00 0.00 0.00 0.00 0.00 0.00 0.00 0.00 0.00 0.00 0.00 0.00 0.00 0.00 0.00 0.00 0.00 0.00 0.00 0.00 0.00 0.00 0.00 0.00 0.00 0.00 0.00 0.00 0.00 0.00 0.00 0.00 0.00 0.00 0.00 0.00
0.00 0.00 0.00 0.00 0.00 0.00 0.00 0.00 0.00 0.00 0.00 0.00 0.00 0.00 0.00 0.00 0.00 0.00 0.00 0.00 0.00 0.00 0.00 0.00 0.00 0.00 0.00 0.00 0.00 0.00 0.00 0.00 0.00 0.00 0.00 0.00 0.00 0.00 0.00 0.00 0.00 0.00 0.00 0.00
0.00 0.00 0.00 0.00 0.00 0.00 0.00 0.00 0.00 0.00 0.00 0.00 0.00 0.00 0.00 0.00 0.00 0.00 0.00 0.00 0.00 0.00 0.00 0.00 0.00 0.00 0.00 0.00 0.00 0.00 0.00 0.00 0.00 0.00 0.00 0.00 0.00 0.00 0.00 0.00 0.00 0.00 0.00 0.00
0.00 0.00 0.00 0.00 0.00 0.00 0.00 0.00 0.00 0.00 0.00 0.00 0.00 0.00 0.00 0.00 0.00 0.00 0.00 0.00 0.00 0.00 0.00 0.00 0.00 0.00 0.00 0.00 0.00 0.00 0.00 0.00 0.00 0.00 0.00 0.00 0.00 0.00 0.00 0.00 0.00 0.00 0.00 0.00
0.00 0.00 0.00 0.00 0.00 0.00 0.00 0.00 0.00 0.00 0.00 0.00 0.00 0.00 0.00 0.00 0.00 0.00 0.00 0.00 0.00 0.00 0.00 0.00 0.00 0.00 0.00 0.00 0.00 0.00 0.00 0.00 0.00 0.00 0.00 0.00 0.00 0.00 0.00 0.00 0.00 0.00 0.00 0.00
0.00 0.00 0.00 0.00 0.00 0.00 0.00 0.00 0.00 0.00 0.00 0.00 0.00 0.00 0.00 0.00 0.00 0.00 0.00 0.00 0.00 0.00 0.00 0.00 0.00 0.00 0.00 0.00 0.00 0.00 0.00 0.00 0.00 0.00 0.00 0.00 0.00 0.00 0.00 0.00 0.00 0.00 0.00 0.00
0.00 0.00 0.00 0.00 0.00 0.00 0.00 0.00 0.00 0.00 0.00 0.00 0.00 0.00 0.00 0.00 0.00 0.00 0.00 0.00 0.00 0.00 0.00 0.00 0.00 0.00 0.00 0.00 0.00 0.00 0.00 0.00 0.00 0.00 0.00 0.00 0.00 0.00 0.00 0.00 0.00 0.00 0.00 0.00
0.00 0.00 0.00 0.00 0.00 0.00 0.00 0.00 0.00 0.00 0.00 0.00 0.00 0.00 0.00 0.00 0.00 0.00 0.00 0.00 0.00 0.00 0.00 0.00 0.00 0.00 0.00 0.00 0.00 0.00 0.00 0.00 0.00 0.00 0.00 0.00 0.00 0.00 0.00 0.00 0.00 0.00 0.00 0.00
0.00 0.00 0.00 0.00 0.00 0.00 0.00 0.00 0.00 0.00 0.00 0.00 0.00 0.00 0.00 0.00 0.00 0.00 0.00 0.00 0.00 0.00 0.00 0.00 0.00 0.00 0.00 0.00 0.00 0.00 0.00 0.00 0.00 0.00 0.00 0.00 0.00 0.00 0.00 0.00 0.00 0.00 0.00 0.00
0.00 0.00 0.00 0.00 0.00 0.00 0.00 0.00 0.00 0.00 0.00 0.00 0.00 0.00 0.00 0.00 0.00 0.00 0.00 0.00 0.00 0.00 0.00 0.00 0.00 0.00 0.00 0.00 0.00 0.00 0.00 0.00 0.00 0.00 0.00 0.00 0.00 0.00 0.00 0.00 0.00 0.00 0.00 0.00
0.00 0.00 0.00 0.00 0.00 0.00 0.00 0.00 0.00 0.00 0.00 0.00 0.00 0.00 0.00 0.00 0.00 0.00 0.00 0.00 0.00 0.00 0.00 0.00 0.00 0.00 0.00 0.00 0.00 0.00 0.00 0.00 0.00 0.00 0.00 0.00 0.00 0.00 0.00 0.00 0.00 0.00 0.00 0.00
0.00 0.00 0.00 0.00 0.00 0.00 0.00 0.00 0.00 0.00 0.00 0.00 0.00 0.00 0.00 0.00 0.00 0.00 0.00 0.00 0.00 0.00 0.00 0.00 0.00 0.00 0.00 0.00 0.00 0.00 0.00 0.00 0.00 0.00 0.00 0.00 0.00 0.00 0.00 0.00 0.00 0.00 0.00 0.00
0.00 0.00 0.00 0.00 0.00 0.00 0.00 0.00 0.00 0.00 0.00 0.00 0.00 0.00 0.00 0.00 0.00 0.00 0.00 0.00 0.00 0.00 0.00 0.00 0.00 0.00 0.00 0.00 0.00 0.00 0.00 0.00 0.00 0.00 0.00 0.00 0.00 0.00 0.00 0.00 0.00 0.00 0.00 0.00
0.00 0.00 0.00 0.00 0.00 0.00 0.00 0.00 0.00 0.00 0.00 0.00 0.00 0.00 0.00 0.00 0.00 0.00 0.00 0.00 0.00 0.00 0.00 0.00 0.00 0.00 0.00 0.00 0.00 0.00 0.00 0.00 0.00 0.00 0.00 0.00 0.00 0.00 0.00 0.00 0.00 0.00 0.00 0.00
0.00 0.00 0.00 0.00 0.00 0.00 0.00 0.00 0.00 0.00 0.00 0.00 0.00 0.00 0.00 0.00 0.00 0.00 0.00 0.00 0.00 0.00 0.00 0.00 0.00 0.00 0.00 0.00 0.00 0.00 0.00 0.00 0.00 0.00 0.00 0.00 0.00 0.00 0.00 0.00 0.00 0.00 0.00 0.00
0.00 0.00 0.00 0.00 0.00 0.00 0.00 0.00 0.00 0.00 0.00 0.00 0.00 0.00 0.00 0.00 0.00 0.00 0.00 0.00 0.00 0.00 0.00 0.00 0.00 0.00 0.00 0.00 0.00 0.00 0.00 0.00 0.00 0.00 0.00 0.00 0.00 0.00 0.00 0.00 0.00 0.00 0.00 0.00
0.00 0.00 0.00 0.00 0.00 0.00 0.00 0.00 0.00 0.00 0.00 0.00 0.00 0.00 0.00 0.00 0.00 0.00 0.00 0.00 0.00 0.00 0.00 0.00 0.00 0.00 0.00 0.00 0.00 0.00 0.00 0.00 0.00 0.00 0.00 0.00 0.00 0.00 0.00 0.00 0.00 0.00 0.00 0.00
0.00 0.00 0.00 0.00 0.00 0.00 0.00 0.00 0.00 0.00 0.00 0.00 0.00 0.00 0.00 0.00 0.00 0.00 0.00 0.00 0.00 0.00 0.00 0.00 0.00 0.00 0.00 0.00 0.00 0.00 0.00 0.00 0.00 0.00 0.00 0.00 0.00 0.00 0.00 0.00 0.00 0.00 0.00 0.00
0.00 0.00 0.00 0.00 0.00 0.00 0.00 0.00 0.00 0.00 0.00 0.00 0.00 0.00 0.00 0.00 0.00 0.00 0.00 0.00 0.00 0.00 0.00 0.00 0.00 0.00 0.00 0.00 0.00 0.00 0.00 0.00 0.00 0.00 0.00 0.00 0.00 0.00 0.00 0.00 0.00 0.00 0.00 0.00
0.00 0.00 0.00 0.00 0.00 0.00 0.00 0.00 0.00 0.00 0.00 0.00 0.00 0.00 0.00 0.00 0.00 0.00 0.00 0.00 0.00 0.00 0.00 0.00 0.00 0.00 0.00 0.00 0.00 0.00 0.00 0.00 0.00 0.00 0.00 0.00 0.00 0.00 0.00 0.00 0.00 0.00 0.00 0.00
0.00 0.00 0.00 0.00 0.00 0.00 0.00 0.00 0.00 0.00 0.00 0.00 0.00 0.00 0.00 0.00 0.00 0.00 0.00 0.00 0.00 0.00 0.00 0.00 0.00 0.00 0.00 0.00 0.00 0.00 0.00 0.00 0.00 0.00 0.00 0.00 0.00 0.00 0.00 0.00 0.00 0.00 0.00 0.00
0.00 0.00 0.00 0.00 0.00 0.00 0.00 0.00 0.00 0.00 0.00 0.00 0.00 0.00 0.00 0.00 0.00 0.00 0.00 0.00 0.00 0.00 0.00 0.00 0.00 0.00 0.00 0.00 0.00 0.00 0.00 0.00 0.00 0.00 0.00 0.00 0.00 0.00 0.00 0.00 0.00 0.00 0.00 0.00
MSLP
1016.72 1017.11 1017.69 1017.66 1017.58 1017.19 1017.66 1018.34 1018.47 1018.62 1018.66 1018.97 1018.89 1018.99 1018.94 1019.30 1019.80 1020.07 1020.41 1020.84 1021.49 1021.71 1022.05 1022.53 1022.97 1023.08 1023.10 1023.12 1023.10 1022.86 1022.89 1022.87 1022.91 1023.08 1023.56 1024.01 1024.45 1024.96 1025.23 1025.36 1025.33 1025.22 1025.07 1024.90
1017.70 1017.49 1017.19 1017.16 1017.41 1017.24 1017.53 1017.91 1018.41 1018.61 1018.89 1019.18 1019.31 1018.98 1018.52 1018.68 1018.63 1018.68 1019.11 1019.96 1020.30 1021.06 1021.67 1022.40 1022.58 1022.95 1023.13 1023.26 1023.22 1023.14 1023.03 1022.92 1023.00 1022.96 1023.15 1023.55 1024.10 1024.98 1025.36 1025.59 1025.65 1025.47 1025.38 1025.22
1017.83 1017.17 1016.84 1017.00 1017.33 1017.42 1017.54 1017.76 1018.05 1018.59 1019.09 1019.41 1019.71 1019.01 1018.02 1017.50 1017.66 1017.97 1018.22 1018.42 1018.94 1019.59 1020.90 1021.88 1022.25 1022.85 1023.01 1023.31 1023.51 1023.42 1023.23 1023.10 1022.91 1022.99 1023.20 1023.50 1023.89 1024.85 1025.54 1025.88 1026.06 1025.93 1025.72 1025.62
1017.87 1017.09 1016.72 1017.24 1017.34 1017.63 1017.74 1017.57 1018.05 1018.73 1019.42 1020.13 1020.22 1019.80 1018.09 1017.07 1017.01 1017.07 1017.25 1017.66 1018.33 1019.25 1020.15 1021.02 1021.94 1022.64 1022.93 1023.47 1023.63 1023.60 1023.53 1023.28 1023.21 1023.06 1023.33 1023.37 1023.64 1024.49 1025.40 1025.99 1026.36 1026.33 1026.15 1026.04
1017.85 1017.15 1017.03 1017.23 1017.50 1017.71 1017.81 1017.75 1018.44 1019.06 1019.71 1020.43 1020.76 1021.05 1018.25 1017.10 1016.73 1016.31 1016.44 1016.93 1017.61 1018.48 1019.32 1020.45 1021.52 1022.21 1022.85 1023.43 1023.78 1023.78 1023.72 1023.67 1023.51 1023.38 1023.48 1023.80 1023.87 1024.31 1025.13 1025.85 1026.28 1026.49 1026.46 1026.50
1018.12 1017.73 1017.34 1017.23 1017.36 1017.63 1017.95 1018.35 1019.03 1019.69 1020.56 1020.92 1020.10 1020.45 1018.30 1017.05 1015.88 1015.57 1015.86 1016.57 1017.23 1018.29 1019.24 1020.15 1021.14 1022.17 1022.95 1023.44 1023.80 1023.91 1023.93 1023.87 1023.82 1023.80 1023.86 1024.05 1024.39 1024.78 1025.14 1025.85 1026.33 1026.74 1026.79 1026.78
1018.56 1018.10 1017.77 1017.54 1017.71 1017.93 1018.25 1019.11 1020.22 1020.92 1021.37 1020.72 1019.87 1020.02 1017.35 1015.77 1015.03 1014.92 1015.42 1016.05 1016.90 1017.82 1018.92 1019.90 1020.83 1021.87 1022.77 1023.39 1023.82 1024.00 1024.07 1024.11 1024.09 1024.23 1024.31 1024.47 1024.61 1025.25 1025.22 1025.57 1026.30 1026.68 1027.04 1027.21
1019.31 1018.69 1017.86 1017.54 1017.64 1018.17 1018.59 1019.48 1020.14 1020.92 1021.47 1020.83 1019.84 1018.57 1015.90 1014.60 1014.58 1014.71 1015.00 1015.61 1016.74 1017.76 1018.58 1019.41 1020.28 1021.29 1022.19 1023.02 1023.64 1024.00 1024.18 1024.32 1024.26 1024.43 1024.79 1025.01 1025.08 1025.55 1025.74 1025.78 1026.20 1026.67 1027.12 1027.18
1019.17 1018.63 1017.64 1017.38 1017.48 1018.00 1018.81 1019.07 1019.52 1020.61 1021.45 1021.17 1019.39 1017.36 1015.33 1014.77 1014.78 1015.11 1015.47 1016.09 1017.00 1017.81 1018.57 1019.51 1020.44 1021.13 1021.99 1022.76 1023.33 1023.77 1024.19 1024.42 1024.58 1024.58 1025.13 1025.28 1025.37 1025.79 1026.11 1026.37 1026.33 1026.61 1027.25 1027.25
1019.22 1018.99 1018.42 1018.09 1018.03 1018.05 1018.05 1018.70 1019.68 1020.53 1021.44 1020.64 1018.56 1017.30 1015.60 1014.66 1014.85 1015.15 1015.98 1016.71 1017.67 1018.45 1019.15 1019.98 1020.65 1021.21 1021.86 1022.40 1022.92 1023.45 1023.97 1024.42 1024.74 1024.64 1024.97 1025.35 1025.67 1025.78 1026.18 1026.39 1026.82 1026.65 1027.31 1027.56
1018.81 1019.16 1019.19 1018.72 1018.57 1018.41 1018.55 1018.56 1018.81 1019.52 1020.07 1019.52 1018.41 1016.19 1014.48 1014.20 1014.55 1015.03 1016.18 1016.97 1017.70 1018.50 1019.23 1020.04 1020.79 1021.34 1021.74 1022.22 1022.71 1023.25 1023.97 1024.59 1024.95 1025.00 1025.27 1025.67 1025.99 1026.19 1026.10 1026.42 1026.90 1027.03 1027.21 1027.69
1018.45 1019.10 1019.43 1019.01 1018.38 1017.99 1017.99 1017.74 1018.13 1018.70 1018.89 1018.82 1018.23 1014.95 1013.92 1014.12 1014.36 1014.53 1015.57 1016.72 1017.36 1018.20 1019.21 1020.04 1020.72 1021.34 1021.86 1022.31 1022.84 1023.30 1023.74 1024.17 1024.58 1025.08 1025.31 1025.61 1025.81 1026.06 1026.29 1026.45 1026.76 1026.81 1027.20 1027.44
1018.35 1019.30 1020.19 1020.04 1019.37 1018.53 1018.05 1017.62 1017.47 1017.69 1017.87 1017.84 1017.76 1014.68 1013.76 1013.92 1014.27 1014.80 1015.73 1016.67 1017.28 1018.09 1019.04 1019.89 1020.61 1021.08 1021.51 1022.01 1022.53 1022.99 1023.42 1023.84 1024.19 1024.64 1025.26 1025.72 1025.98 1025.98 1026.17 1026.25 1026.61 1026.84 1027.12 1027.46
1018.70 1019.64 1019.99 1019.53 1018.76 1018.17 1017.96 1017.29 1017.03 1017.20 1017.30 1016.30 1015.94 1013.62 1013.48 1013.80 1014.16 1014.93 1015.57 1016.11 1016.86 1017.68 1018.43 1019.22 1020.03 1020.39 1020.86 1021.40 1022.01 1022.58 1023.07 1023.33 1023.80 1024.36 1024.90 1025.37 1025.76 1026.03 1026.33 1026.47 1026.65 1026.93 1027.07 1027.49
1019.95 1020.46 1020.25 1019.45 1018.90 1018.43 1018.14 1017.90 1017.50 1017.25 1016.46 1016.13 1014.03 1013.70 1011.70 1012.93 1013.55 1014.10 1014.31 1015.11 1016.20 1016.85 1017.67 1018.11 1018.67 1019.34 1020.06 1020.73 1021.38 1022.00 1022.53 1022.96 1023.24 1023.76 1024.31 1024.83 1025.39 1025.95 1026.15 1026.47 1026.67 1026.94 1027.26 1027.76
1021.32 1020.91 1020.92 1020.09 1019.05 1018.92 1018.61 1017.98 1017.69 1016.96 1015.96 1015.20 1013.95 1012.66 1010.08 1012.03 1012.32 1012.85 1013.26 1014.16 1015.15 1015.75 1016.29 1016.96 1017.75 1018.48 1018.80 1019.25 1019.89 1020.76 1021.55 1022.27 1022.95 1023.50 1023.81 1024.22 1024.89 1025.66 1026.17 1026.55 1026.75 1027.04 1027.59 1027.96
1022.62 1021.98 1021.64 1019.99 1019.51 1019.26 1018.53 1016.79 1015.67 1015.23 1014.71 1014.09 1013.17 1010.75 1010.67 1011.10 1011.87 1011.88 1012.24 1013.10 1013.58 1013.67 1014.21 1015.06 1015.51 1016.04 1016.94 1017.57 1018.41 1019.16 1020.18 1021.38 1022.25 1022.80 1023.35 1023.83 1024.34 1025.06 1025.69 1026.20 1026.62 1027.19 1027.66 1027.97
1022.90 1023.08 1023.17 1021.39 1020.73 1018.05 1015.04 1014.24 1013.97 1013.47 1012.31 1011.95 1011.88 1011.30 1010.44 1010.33 1011.11 1010.75 1011.11 1011.40 1011.49 1011.89 1012.71 1013.37 1013.83 1014.40 1015.13 1016.22 1017.28 1018.22 1019.17 1020.10 1021.17 1021.97 1022.59 1023.26 1024.01 1024.67 1025.12 1025.62 1026.13 1026.89 1027.46 1027.89
1022.40 1022.83 1023.12 1022.16 1020.68 1017.87 1015.30 1014.17 1013.63 1013.39 1011.64 1011.52 1011.77 1010.48 1009.41 1009.85 1010.14 1009.69 1009.67 1009.55 1009.57 1009.80 1010.00 1010.44 1010.95 1011.77 1013.69 1014.87 1016.02 1017.06 1018.17 1019.01 1019.98 1020.77 1021.48 1022.18 1022.93 1023.70 1024.46 1025.05 1025.69 1026.43 1027.10 1027.68
1022.83 1023.08 1023.18 1021.77 1021.12 1018.21 1013.61 1012.94 1012.87 1013.07 1012.10 1011.50 1011.13 1010.59 1010.12 1010.51 1010.39 1008.91 1007.65 1008.69 1008.40 1008.22 1008.82 1009.31 1009.90 1011.08 1012.49 1013.69 1014.84 1016.03 1016.83 1017.73 1018.24 1019.25 1020.31 1021.40 1022.19 1022.88 1023.65 1024.43 1025.30 1026.09 1026.77 1027.23
1023.92 1023.36 1022.27 1021.62 1020.71 1016.67 1012.26 1013.09 1013.67 1013.98 1012.51 1011.72 1011.81 1011.68 1011.55 1011.43 1011.22 1010.03 1009.35 1009.03 1008.56 1007.87 1007.76 1008.14 1009.22 1009.84 1010.62 1012.49 1013.89 1015.01 1015.90 1016.00 1016.93 1018.02 1019.34 1020.56 1021.40 1022.16 1022.94 1023.88 1024.96 1025.74 1026.50 1027.09
1022.74 1022.71 1021.79 1020.94 1019.62 1015.79 1012.75 1012.51 1013.32 1012.62 1012.11 1012.02 1011.94 1012.11 1011.70 1011.42 1010.73 1010.51 1010.07 1009.96 1009.11 1008.50 1008.25 1008.24 1009.00 1009.51 1010.14 1011.27 1012.62 1013.74 1014.28 1015.21 1016.37 1017.69 1018.49 1019.59 1020.55 1021.51 1022.44 1023.38 1024.50 1025.37 1026.05 1026.76
1021.08 1019.40 1019.27 1018.34 1015.45 1013.55 1012.76 1012.47 1012.51 1012.75 1012.41 1011.41 1011.42 1011.85 1011.58 1011.14 1011.03 1011.03 1010.53 1009.99 1009.28 1008.79 1008.65 1009.07 1008.90 1009.18 1009.82 1010.55 1011.23 1012.08 1012.98 1014.52 1015.65 1016.97 1018.01 1018.99 1020.06 1021.02 1021.87 1022.84 1023.82 1024.79 1025.55 1026.21
1019.13 1018.28 1017.69 1017.24 1013.39 1012.95 1011.83 1011.90 1011.95 1011.74 1011.30 1010.59 1010.45 1010.67 1010.83 1010.68 1010.51 1010.43 1010.21 1009.31 1009.06 1008.80 1008.74 1008.87 1009.29 1009.66 1009.94 1010.29 1010.57 1010.89 1012.27 1013.53 1015.18 1016.30 1017.58 1018.66 1019.46 1020.46 1021.44 1022.27 1023.10 1023.98 1024.76 1025.46
1017.99 1017.57 1017.07 1014.97 1012.23 1013.08 1010.87 1011.37 1011.26 1010.94 1010.48 1010.12 1009.94 1009.82 1010.17 1009.95 1009.67 1009.44 1009.37 1008.94 1009.00 1008.50 1008.16 1008.34 1008.71 1008.66 1009.40 1010.14 1010.67 1011.41 1012.08 1013.21 1014.63 1015.88 1017.00 1018.03 1018.98 1019.85 1020.90 1021.59 1022.15 1022.81 1023.56 1023.85
1016.52 1015.78 1015.65 1013.13 1010.84 1012.48 1010.01 1010.46 1010.49 1010.49 1009.99 1009.68 1009.77 1009.55 1009.50 1009.70 1009.31 1008.85 1008.36 1008.34 1007.95 1008.00 1007.17 1007.68 1008.12 1008.44 1008.75 1009.65 1010.46 1011.45 1012.23 1013.19 1014.25 1015.69 1016.65 1017.38 1018.42 1019.46 1020.44 1021.34 1022.35 1022.86 1023.43 1023.64
Thickness
5598 5590 5583 5595 5611 5620 5616 5609 5610 5614 5621 5619 5624 5629 5635 5632 5630 5632 5635 5635 5627 5629 5630 5627 5624 5626 5628 5628 5628 5632 5630 5630 5629 5628 5625 5620 5616 5612 5609 5606 5604 5605 5605 5604
5580 5580 5597 5606 5610 5611 5611 5607 5602 5614 5613 5615 5613 5621 5632 5633 5636 5638 5639 5634 5633 5629 5626 5621 5622 5621 5621 5620 5620 5621 5623 5624 5623 5623 5621 5618 5613 5604 5599 5597 5595 5596 5595 5594
5570 5591 5601 5600 5599 5599 5604 5603 5606 5609 5607 5609 5604 5611 5626 5638 5639 5636 5639 5643 5640 5636 5624 5619 5619 5613 5614 5611 5610 5611 5613 5615 5616 5615 5612 5610 5607 5596 5591 5587 5585 5585 5584 5583
5573 5588 5592 5587 5588 5592 5588 5603 5606 5601 5598 5584 5600 5596 5617 5635 5636 5639 5639 5639 5639 5631 5624 5619 5613 5607 5606 5601 5602 5603 5604 5606 5606 5604 5603 5603 5601 5593 5583 5578 5574 5573 5573 5572
5564 5578 5581 5579 5580 5587 5585 5598 5595 5596 5592 5594 5589 5564 5612 5625 5630 5636 5639 5639 5636 5630 5624 5616 5608 5603 5598 5595 5592 5592 5594 5594 5595 5596 5595 5591 5590 5586 5577 5571 5566 5564 5562 5559
5561 5571 5577 5578 5581 5583 5585 5585 5585 5581 5573 5542 5584 5579 5595 5617 5634 5638 5637 5634 5629 5622 5617 5610 5604 5596 5590 5586 5583 5582 5583 5583 5583 5584 5584 5581 5577 5572 5569 5562 5557 5553 5551 5550
5553 5558 5568 5572 5570 5575 5576 5562 5525 5534 5556 5559 5586 5577 5603 5628 5638 5640 5637 5633 5625 5621 5613 5605 5597 5588 5581 5577 5574 5573 5572 5572 5572 5571 5571 5568 5566 5558 5559 5556 5548 5543 5539 5537
5531 5533 5552 5562 5561 5556 5555 5552 5537 5536 5545 5558 5578 5580 5609 5631 5629 5631 5634 5630 5621 5614 5610 5603 5595 5585 5578 5572 5567 5565 5563 5561 5561 5559 5556 5554 5553 5547 5544 5543 5539 5534 5529 5528
5527 5533 5553 5555 5561 5559 5549 5547 5554 5544 5527 5540 5562 5588 5613 5614 5617 5620 5624 5616 5611 5607 5602 5593 5585 5580 5573 5566 5561 5557 5554 5551 5549 5549 5543 5542 5541 5536 5532 5528 5528 5525 5518 5517
5526 5526 5534 5544 5551 5553 5551 5551 5532 5525 5503 5528 5557 5569 5591 5613 5613 5609 5608 5601 5593 5588 5583 5579 5575 5571 5565 5560 5556 5551 5547 5542 5539 5539 5536 5533 5530 5527 5522 5519 5515 5515 5508 5505
5524 5518 5520 5532 5533 5534 5534 5534 5541 5535 5529 5540 5546 5567 5597 5606 5608 5606 5590 5590 5582 5578 5575 5571 5563 5560 5558 5553 5549 5544 5538 5531 5527 5526 5524 5521 5517 5515 5514 5511 5506 5502 5500 5494
5517 5506 5490 5514 5528 5533 5536 5539 5536 5523 5533 5524 5532 5573 5603 5596 5596 5599 5587 5582 5576 5574 5565 5558 5555 5551 5547 5544 5539 5534 5529 5525 5521 5517 5515 5512 5510 5508 5505 5502 5499 5496 5491 5488
5507 5469 5443 5480 5502 5518 5518 5532 5533 5531 5530 5525 5522 5565 5582 5583 5587 5588 5574 5568 5566 5561 5553 5549 5544 5542 5540 5536 5531 5526 5523 5519 5516 5512 5506 5502 5499 5499 5498 5497 5493 5489 5486 5482
5497 5485 5483 5498 5509 5512 5506 5519 5523 5522 5511 5532 5528 5570 5578 5574 5574 5568 5565 5561 5557 5555 5549 5544 5538 5536 5534 5530 5526 5521 5517 5515 5511 5506 5500 5496 5492 5490 5488 5486 5485 5482 5479 5476
5470 5453 5463 5490 5490 5494 5493 5495 5501 5503 5516 5509 5549 5546 5585 5575 5575 5558 5563 5558 5551 5549 5545 5541 5539 5533 5528 5524 5520 5516 5512 5508 5506 5502 5497 5492 5486 5481 5479 5477 5476 5473 5470 5466
5447 5443 5447 5460 5481 5469 5471 5482 5482 5489 5504 5510 5527 5537 5594 5571 5562 5560 5568 5552 5547 5546 5544 5539 5533 5527 5526 5524 5520 5514 5508 5503 5497 5493 5491 5487 5481 5474 5470 5467 5465 5463 5460 5455
5417 5429 5435 5455 5469 5449 5440 5479 5498 5503 5502 5507 5506 5553 5568 5556 5547 5558 5568 5539 5541 5549 5547 5540 5536 5533 5528 5526 5520 5515 5508 5498 5492 5487 5483 5479 5475 5470 5464 5460 5457 5453 5449 5445
5392 5400 5398 5405 5410 5436 5488 5496 5500 5503 5515 5520 5515 5527 5547 5551 5538 5546 5541 5533 5544 5549 5542 5539 5537 5534 5529 5524 5517 5510 5503 5496 5488 5482 5478 5473 5468 5463 5460 5456 5452 5445 5440 5436
5408 5400 5374 5387 5337 5428 5455 5474 5481 5478 5499 5511 5501 5525 5544 5538 5531 5532 5542 5542 5547 5545 5548 5547 5546 5541 5526 5521 5513 5506 5499 5493 5486 5481 5477 5472 5466 5461 5456 5451 5445 5439 5433 5428
5394 5388 5376 5371 5375 5394 5476 5488 5481 5464 5453 5501 5504 5511 5518 5512 5497 5529 5542 5529 5539 5545 5542 5542 5539 5531 5523 5516 5508 5501 5497 5491 5489 5482 5474 5466 5461 5456 5451 5445 5438 5431 5425 5420
5346 5371 5379 5377 5364 5382 5467 5460 5449 5418 5447 5474 5463 5471 5474 5481 5481 5497 5507 5509 5515 5529 5533 5534 5526 5527 5526 5512 5503 5496 5492 5495 5488 5480 5470 5461 5456 5451 5445 5437 5429 5422 5416 5409
5354 5336 5353 5337 5364 5389 5448 5444 5426 5432 5430 5438 5441 5441 5454 5462 5468 5472 5484 5482 5494 5505 5506 5512 5511 5513 5512 5507 5498 5493 5492 5487 5479 5470 5465 5458 5451 5444 5437 5430 5421 5413 5406 5399
5351 5381 5351 5371 5394 5409 5423 5431 5416 5409 5417 5433 5425 5422 5429 5439 5445 5448 5460 5469 5479 5485 5488 5487 5495 5499 5498 5496 5494 5491 5487 5476 5471 5461 5456 5450 5442 5435 5429 5422 5415 5405 5398 5390
5356 5347 5356 5363 5421 5417 5426 5419 5407 5406 5413 5426 5424 5415 5412 5418 5426 5432 5439 5456 5463 5469 5471 5474 5474 5476 5478 5479 5482 5484 5475 5467 5457 5451 5444 5438 5433 5427 5419 5414 5407 5399 5391 5383
5353 5350 5339 5371 5411 5398 5416 5407 5406 5407 5411 5415 5416 5409 5402 5405 5414 5417 5427 5439 5447 5457 5462 5463 5467 5471 5467 5463 5463 5461 5460 5453 5445 5439 5433 5428 5424 5418 5410 5405 5400 5394 5387 5382
5354 5362 5352 5371 5409 5374 5407 5401 5393 5389 5396 5397 5391 5396 5391 5389 5399 5410 5419 5420 5433 5442 5453 5452 5453 5457 5457 5452 5448 5443 5440 5435 5430 5424 5421 5419 5412 5405 5398 5393 5385 5380 5374 5370